Tracking 17739 objects as of 26-June-2016
HD Live streaming from Space Station
objects crossing your sky now

BREEZE-M R/B

Track BREEZE-M R/B now!


NORAD ID: 28925
Int'l Code: 2005-052B
Perigee: 6,188.1 km
Apogee: 35,353.8 km
Inclination: 19.5 °
Period: 741.7 minutes
Semi major axis: 27141 km
RCS: 0.6439 m2 (medium)
Launch date: December 29, 2005
Source: Commonwealth of Independent States (former USSR) (CIS)
Launch site: TYURATAM MISSILE AND SPACE COMPLEX (TTMTR)

Note: This is a ROCKET BODY
Your satellite tracking list
Your tracking list is empty





NASA's NSSDC Master Catalog

Two Line Element Set (TLE):
1 28925U 05052B   16176.62254293 +.00000035 +00000-0 +00000-0 0  9990
2 28925 019.4616 039.7584 5372820 125.5525 280.2866 01.94151745074294
Source of the keplerian elements: AFSPC

N2YO: 871